GEFSMW_con_prob3kmehi_216.txt.gz
EHI
41 46 46 44 50 61 66 60 53 47 35 22 14 9 5 3 3 11 23 25 18 15 16 17 19 21 21 19 15 14 16 20 20 17 13 11 12 15 17 15 12 9 9
51 56 55 50 55 66 70 64 59 54 41 28 18 11 7 6 6 14 25 28 22 17 15 16 17 18 20 20 18 17 19 20 20 18 13 9 9 9 10 12 13 11 10
63 67 65 59 61 69 71 67 67 65 52 35 23 17 13 12 13 21 28 30 25 20 16 16 17 17 19 21 21 21 22 20 18 17 14 12 10 6 5 8 12 14 15
66 69 69 64 63 67 69 70 73 72 61 45 31 25 22 17 18 24 29 29 25 21 20 21 23 22 21 21 21 23 23 18 14 15 16 16 15 10 6 6 10 15 17
60 65 69 67 64 65 70 74 77 75 67 54 42 35 27 20 21 27 31 32 29 25 23 25 29 28 23 20 22 24 23 16 12 13 17 19 19 16 11 8 8 11 14
52 59 68 70 68 67 71 76 79 77 70 60 51 43 34 29 30 34 37 36 33 30 27 28 32 31 26 23 24 25 23 19 15 14 16 20 20 17 14 12 10 11 13
45 54 66 72 72 71 74 78 80 79 72 63 57 51 43 39 39 38 38 36 33 32 34 35 38 35 28 25 26 25 22 21 19 17 18 20 19 16 14 13 13 13 13
41 49 60 68 70 71 75 79 82 80 73 66 62 57 50 44 41 37 34 32 31 32 37 43 43 38 30 26 25 24 21 21 20 19 20 21 17 15 15 16 14 13 12
36 43 52 58 64 69 75 79 82 80 74 68 64 61 55 49 44 39 33 30 30 32 38 45 43 38 30 24 23 23 22 22 20 20 22 22 18 16 19 20 18 16 13
32 39 46 51 57 65 73 78 81 80 75 69 65 62 60 54 48 42 36 33 33 36 42 46 43 38 32 26 23 24 24 24 22 20 22 23 21 21 23 23 22 21 19
33 38 46 51 55 61 70 77 79 78 74 68 63 62 62 57 50 45 41 39 39 42 45 45 42 39 36 32 30 27 25 26 25 23 23 25 26 25 24 22 22 22 21
34 38 47 53 55 60 68 73 74 72 70 66 63 63 61 57 54 51 49 47 48 49 49 46 41 37 35 36 36 31 27 27 29 29 27 27 27 27 24 21 20 19 17
37 41 47 52 55 60 66 68 67 66 64 64 64 64 61 58 57 56 54 52 52 54 53 49 42 35 32 34 36 34 28 27 30 31 30 27 27 26 24 22 21 19 14
45 47 49 53 58 63 65 64 63 62 62 62 63 61 57 55 55 54 52 50 50 52 53 50 44 36 30 30 33 34 30 28 29 29 27 26 25 24 22 22 22 20 16
50 50 52 56 61 65 66 64 63 61 60 60 59 55 50 48 49 49 47 45 45 47 49 48 43 36 28 25 28 30 30 31 31 29 26 24 22 20 17 17 19 19 17
45 47 50 53 59 62 63 62 61 58 56 55 54 50 45 44 45 45 43 42 42 44 46 45 41 36 27 19 18 23 28 31 33 30 26 22 19 19 16 13 12 12 13
39 40 42 46 52 55 55 55 55 53 51 50 49 47 44 43 43 41 40 41 42 44 44 42 41 37 27 15 11 16 24 29 31 30 27 23 20 21 21 16 10 9 9
33 34 36 41 46 48 47 46 47 48 46 45 45 43 43 42 41 38 37 39 41 43 43 41 40 38 28 15 8 11 19 25 27 28 29 27 23 20 22 21 16 13 12
30 31 34 37 42 44 43 41 41 41 41 40 40 40 40 40 37 33 32 33 36 37 38 37 36 34 27 15 6 8 16 22 24 27 29 28 22 15 16 20 22 21 19
31 30 30 32 36 40 41 41 40 38 36 36 38 38 36 36 33 30 27 28 29 30 30 29 29 28 24 14 5 6 14 20 23 26 26 21 15 9 9 16 22 22 21
33 31 28 28 32 35 38 40 40 37 33 33 35 35 33 31 29 27 25 24 25 25 24 23 22 22 19 12 4 3 10 17 22 24 22 16 9 4 4 9 15 17 16
32 30 28 28 28 30 32 36 36 34 31 30 30 31 31 29 27 26 25 23 23 23 22 20 19 18 17 13 6 3 5 11 17 19 16 12 6 2 1 3 7 9 10
27 27 27 26 24 24 27 32 33 31 29 28 29 29 28 27 25 24 23 22 22 21 20 19 18 18 17 15 9 4 2 5 9 10 8 5 2 0 0 1 3 6 8
23 24 24 24 23 21 23 27 30 30 29 28 28 28 27 26 24 20 19 19 19 19 19 19 19 19 17 15 11 6 4 5 5 4 3 2 1 0 1 3 4 6 8
23 23 23 24 23 20 20 23 26 28 29 28 26 25 24 25 22 17 14 13 13 13 14 15 17 16 14 12 10 9 7 7 6 4 4 4 4 3 4 7 9 9 10
24 23 23 24 23 19 19 22 26 28 28 27 24 21 21 23 20 13 9 8 8 8 8 9 11 11 10 9 9 10 9 8 5 4 5 6 6 5 6 8 10 11 10

GEFSMW_con_prob3kmehi_222.txt.gz
EHI
26 35 42 41 40 37 32 27 21 15 10 7 4 2 1 0 0 0 1 1 2 4 3 1 0 0 0 0 1 0 0 0 0 0 0 0 0 0 0 1 2 2 2
29 40 48 47 44 40 35 30 25 19 13 8 4 3 1 0 0 0 0 1 2 4 3 2 1 0 0 0 1 1 0 0 0 0 0 0 0 0 0 0 1 1 1
33 42 51 53 49 44 39 35 32 27 18 11 7 5 4 2 0 0 0 1 2 3 4 4 3 2 1 0 0 1 1 0 0 0 0 0 0 1 0 0 0 0 0
36 41 48 51 50 47 43 39 37 34 26 18 14 10 7 3 1 0 0 1 1 3 5 6 5 4 3 3 2 1 0 0 0 0 0 0 0 0 0 0 0 0 0
37 39 43 46 48 49 47 43 41 40 33 26 21 16 10 4 1 1 1 0 0 2 5 6 6 7 8 8 6 3 1 0 0 0 0 0 0 0 0 0 0 0 0
37 37 39 42 46 50 52 50 47 43 38 32 26 20 13 7 4 2 2 1 1 2 5 6 7 9 11 10 8 5 3 2 1 0 0 0 0 1 0 0 0 0 0
38 37 36 38 43 50 55 57 54 47 41 35 29 22 17 12 7 4 3 3 4 4 5 7 9 11 11 9 8 6 6 5 4 2 1 0 0 0 0 0 0 0 0
39 39 37 36 41 49 55 58 58 52 45 40 32 24 19 16 10 5 4 4 5 6 6 8 9 10 9 9 7 7 6 7 7 5 3 1 1 0 1 1 1 0 0
36 38 37 34 39 47 52 57 59 56 51 45 37 29 23 18 13 9 8 8 9 10 11 11 10 8 8 9 8 7 7 8 9 7 5 3 2 2 2 2 2 1 1
30 32 33 33 39 45 51 56 59 59 56 50 43 35 29 23 18 15 14 14 13 14 14 13 11 8 7 8 9 9 7 8 10 8 6 5 4 4 4 4 4 4 2
26 27 28 30 37 44 51 57 62 62 58 52 47 41 34 29 25 20 18 16 16 15 15 13 12 10 8 8 11 11 9 8 8 8 7 6 6 8 8 7 6 6 5
27 26 28 30 34 41 49 55 61 62 59 55 50 44 38 34 30 25 19 17 16 16 15 16 14 12 10 10 12 13 11 8 7 7 7 7 7 9 10 9 8 7 6
28 28 30 32 34 38 43 48 53 57 58 56 51 45 41 38 35 29 23 19 17 17 17 18 17 14 12 12 12 12 10 8 7 7 7 6 7 7 7 7 7 6 6
31 30 30 31 33 35 38 41 46 52 54 53 50 44 40 39 37 32 28 24 20 18 17 17 17 15 14 13 12 10 8 7 7 7 7 7 7 6 5 4 5 5 6
30 29 28 26 27 29 33 37 44 49 50 50 49 43 38 37 37 36 32 28 24 22 18 15 15 15 12 11 11 10 8 6 5 6 6 6 6 5 4 3 3 3 3
24 24 23 20 21 24 28 33 38 42 45 47 45 40 35 34 37 38 35 30 26 24 20 16 15 14 10 7 6 7 7 6 5 6 7 6 6 4 3 2 2 1 1
18 18 17 17 21 24 26 29 32 35 38 40 39 34 31 32 35 37 34 30 25 23 20 15 15 14 9 5 3 4 5 5 6 6 6 6 6 6 4 2 2 1 1
14 14 14 17 23 26 27 28 30 31 34 35 33 30 28 29 30 31 30 25 22 20 16 14 15 14 8 3 1 2 3 5 5 5 5 6 7 8 5 4 3 3 2
14 14 15 18 22 26 28 29 29 29 31 31 29 27 26 25 25 25 23 20 18 17 14 14 16 14 7 2 0 1 3 5 5 5 5 6 7 6 4 5 5 4 3
17 19 20 20 20 22 25 27 28 29 30 28 25 24 24 23 21 20 18 17 16 15 14 15 16 12 7 2 0 2 4 5 4 5 7 7 6 3 2 4 5 4 3
21 22 22 21 20 21 23 25 26 27 28 28 25 22 22 21 18 15 14 14 14 14 14 14 13 10 7 4 1 2 4 5 5 6 8 8 5 1 0 2 4 3 2
20 20 19 20 20 21 22 24 23 23 25 27 24 20 18 16 13 12 12 12 12 13 13 13 11 9 8 6 2 1 2 4 6 8 9 8 4 1 0 0 1 1 1
17 17 17 17 17 17 19 20 18 18 19 20 19 16 14 12 10 9 10 10 10 11 13 13 12 9 8 6 3 1 0 3 6 8 7 5 3 1 0 0 0 0 0
14 14 15 15 13 12 12 13 13 13 13 13 14 13 12 11 8 7 8 9 9 9 11 13 12 10 8 7 4 1 0 2 4 5 4 3 1 0 0 0 0 0 0
13 13 14 13 11 8 6 6 7 8 8 9 10 11 11 10 7 5 4 5 6 6 7 9 9 8 8 7 4 2 1 2 4 4 3 3 2 2 1 0 0 0 0
14 13 13 13 10 7 4 4 4 5 6 6 8 9 9 8 6 4 2 2 3 3 3 5 6 6 6 5 3 1 1 3 4 4 4 4 4 4 3 1 0 0 0

GEFSMW_con_prob3kmehi_228.txt.gz
EHI
3 3 4 7 8 8 8 7 6 5 4 3 1 0 0 0 0 0 0 0 1 1 2 3 3 3 3 3 3 3 3 3 3 3 3 3 3 3 3 3 3 3 3
5 6 7 10 12 13 11 8 7 5 4 3 2 1 0 0 0 0 0 0 1 2 2 3 3 3 3 3 3 3 3 3 3 3 3 3 3 3 3 3 3 3 3
9 10 13 15 18 18 14 10 8 7 6 4 4 3 2 2 1 1 1 1 1 2 3 3 3 3 3 3 3 3 3 3 3 3 3 3 3 3 3 3 3 3 3
12 13 15 18 20 20 17 12 10 8 7 6 6 7 6 4 3 2 2 2 2 3 3 3 3 3 3 3 3 3 3 3 3 3 3 3 3 3 3 3 3 3 3
13 14 15 16 18 19 18 14 12 10 9 8 8 9 8 6 4 4 4 3 3 3 3 3 3 3 4 4 4 3 3 3 3 3 3 3 3 3 3 3 3 3 3
12 14 14 14 16 18 18 16 15 14 13 13 11 10 10 8 6 6 6 5 5 4 4 3 3 4 4 5 4 4 4 3 3 3 3 3 3 3 3 3 3 3 3
12 14 15 15 18 20 20 20 20 19 19 18 17 15 13 12 10 9 8 8 7 6 5 5 5 5 5 5 4 4 4 4 4 4 4 4 3 3 3 3 3 3 2
12 15 16 17 21 24 23 24 24 22 22 22 21 20 18 16 14 11 10 9 7 6 7 8 8 8 7 5 4 3 4 5 6 6 6 5 5 4 4 3 3 3 2
11 14 18 21 24 26 26 27 28 27 25 24 24 23 21 19 16 13 12 11 8 7 8 10 9 9 8 6 4 4 4 5 6 7 6 6 5 5 4 3 4 5 6
10 13 19 23 25 26 28 29 31 32 30 27 26 24 21 19 17 16 16 14 10 8 8 9 9 8 8 7 5 5 6 6 7 7 6 4 4 4 4 3 4 6 7
10 13 19 24 25 25 27 30 32 33 32 30 27 23 20 18 18 19 19 17 12 8 7 8 8 9 8 8 7 8 9 9 9 8 5 4 4 4 4 4 5 6 5
13 17 22 25 24 25 27 29 29 29 30 30 26 23 22 19 18 19 20 18 13 8 7 7 8 8 8 8 8 10 11 11 10 8 6 5 6 5 5 5 5 5 5
16 19 22 23 22 23 25 26 25 25 28 28 24 22 23 20 17 16 17 17 13 9 6 6 6 5 5 6 8 11 11 9 9 8 7 8 8 6 5 5 4 4 4
15 17 17 17 18 20 22 23 23 24 25 26 24 22 22 19 15 13 12 12 10 8 6 5 5 4 4 5 8 11 11 9 8 8 7 8 9 7 6 5 4 4 3
13 13 13 14 15 17 18 20 22 24 25 26 26 23 21 17 12 10 10 9 9 9 9 8 7 7 6 6 8 11 12 10 7 7 7 7 7 7 6 5 4 3 4
13 12 11 12 13 14 15 17 20 24 26 26 27 26 23 18 14 12 13 13 12 11 12 13 12 10 8 6 6 9 10 9 6 6 7 7 6 4 4 3 2 2 3
16 15 12 11 10 11 12 14 18 22 25 24 24 24 23 20 17 17 18 18 16 15 16 17 15 11 7 5 4 5 7 6 6 6 7 8 6 3 3 2 2 2 2
18 17 14 11 9 9 9 11 16 20 21 21 20 21 21 21 20 20 21 20 18 18 19 19 17 13 7 4 3 3 4 4 5 6 8 9 7 4 3 5 5 3 2
14 14 13 11 10 9 8 9 13 16 17 17 19 20 20 20 20 21 21 21 20 19 19 19 19 16 10 4 1 1 3 4 5 6 7 7 5 3 3 6 7 5 4
10 10 10 9 10 9 8 9 11 14 15 16 19 21 21 22 22 21 21 20 19 17 16 16 17 17 12 5 1 1 3 6 6 5 4 3 2 1 2 5 7 6 6
8 9 9 9 8 8 8 8 10 12 14 17 19 21 21 22 21 19 18 16 14 13 13 12 12 13 10 5 1 1 3 6 7 5 2 1 0 0 2 4 5 6 6
6 7 8 7 6 7 7 7 7 9 13 16 18 19 19 18 17 16 14 12 10 9 9 9 9 9 8 4 1 0 2 3 5 4 2 1 0 0 1 1 3 4 4
4 4 4 3 3 3 5 6 6 8 12 14 16 17 16 14 12 12 10 8 6 6 7 7 7 7 8 6 3 1 0 1 2 3 2 1 0 0 0 0 1 3 3
1 2 3 3 2 2 4 6 8 10 12 13 14 14 13 9 8 8 7 5 4 5 6 6 6 7 8 7 5 2 1 0 0 1 1 0 0 0 0 0 1 3 4
1 3 5 5 3 3 4 5 8 11 11 11 11 11 9 7 6 6 5 3 3 3 4 5 5 6 7 6 4 2 1 0 0 0 0 0 0 0 0 1 2 4 5
2 4 6 6 4 4 4 5 7 9 10 10 10 9 8 6 6 6 5 2 2 2 2 2 3 4 5 4 2 1 1 0 0 0 0 0 0 0 0 1 2 4 5

GEFSMW_con_prob3kmehi_234.txt.gz
EHI
14 14 13 12 13 14 14 14 11 8 6 5 4 3 1 0 0 0 0 0 1 1 2 2 3 4 6 5 2 1 0 1 2 3 2 1 0 0 0 0 0 0 0
16 17 17 18 19 19 17 14 12 11 9 7 5 3 2 1 1 1 1 2 3 3 2 2 2 3 4 4 3 3 2 3 4 5 3 1 0 0 0 0 0 0 0
18 20 22 23 25 23 18 14 14 15 13 10 7 6 5 4 3 3 4 5 5 5 3 2 2 3 4 5 6 6 6 6 7 7 5 3 2 1 0 0 0 0 0
16 21 24 24 24 22 17 15 17 17 15 14 12 11 10 7 5 5 5 6 7 6 5 3 4 5 6 8 9 9 8 8 7 7 7 6 5 3 1 0 0 0 0
13 17 22 23 22 19 17 18 21 22 21 19 17 16 14 11 9 8 8 8 9 8 8 7 9 10 10 11 11 11 10 8 7 7 7 8 7 5 3 1 0 0 0
11 15 20 23 24 22 20 21 26 30 29 26 22 20 18 17 15 14 12 12 11 11 11 12 14 15 14 13 11 11 11 9 7 7 7 8 7 6 4 2 1 1 0
10 13 18 24 30 29 25 25 30 34 34 33 30 26 23 21 20 17 15 13 11 11 13 15 17 17 15 13 12 10 10 9 7 6 5 6 7 7 7 5 4 2 2
8 10 14 22 29 31 29 29 31 35 37 38 38 34 28 24 21 18 16 14 11 11 14 16 17 16 15 13 12 10 9 9 7 5 4 4 5 6 8 9 8 5 4
6 8 11 17 22 26 28 29 32 37 39 41 41 38 32 27 23 21 19 17 16 16 17 18 17 15 15 15 13 11 10 9 8 6 6 6 5 5 8 11 11 8 6
9 10 12 14 16 19 24 27 32 36 39 40 40 37 34 31 29 26 24 23 23 23 22 21 19 17 16 17 16 13 10 9 8 9 9 8 5 5 6 8 10 9 7
13 14 14 13 13 15 21 26 31 36 38 40 40 38 37 36 34 33 31 30 28 26 25 23 21 18 17 19 18 14 12 10 10 10 10 9 8 8 8 8 8 8 8
15 16 16 14 13 16 20 25 31 35 39 42 43 43 41 39 38 38 38 37 34 31 27 23 19 18 19 21 20 16 13 12 12 11 11 11 11 13 14 13 11 10 10
17 17 18 17 18 20 24 28 30 33 37 41 45 46 42 39 38 39 40 39 38 36 31 26 23 20 20 21 21 17 14 14 14 14 13 12 14 17 20 19 17 13 12
19 22 24 23 24 28 31 32 31 32 34 38 43 42 38 36 36 37 37 35 35 35 34 32 30 25 22 22 22 20 18 18 18 18 17 16 16 18 20 21 19 17 16
24 28 31 30 31 34 37 36 35 35 36 38 41 39 35 33 33 33 33 31 31 32 33 33 33 29 24 22 22 22 23 24 24 24 23 21 18 15 15 14 15 18 20
27 30 33 35 35 36 38 39 39 39 38 39 40 38 35 32 30 30 30 31 32 33 32 32 31 28 23 18 16 19 23 27 29 28 25 22 18 13 10 7 7 11 16
26 27 30 33 34 34 35 37 39 40 40 38 36 33 31 29 28 28 30 31 32 33 33 32 31 27 21 14 8 11 19 25 27 27 24 20 18 16 13 9 5 6 8
25 25 26 29 31 32 32 32 34 37 38 36 32 27 26 27 27 28 30 31 33 33 33 33 33 29 21 11 5 7 15 21 22 23 22 21 20 18 16 13 9 7 7
26 25 26 29 31 31 30 29 30 33 33 31 28 25 26 27 27 28 31 33 35 35 33 32 32 29 19 8 2 5 13 17 18 18 19 20 19 13 10 12 11 10 11
27 28 29 29 29 28 26 26 28 28 27 24 23 23 25 27 27 28 30 33 36 36 34 32 30 26 18 8 1 3 10 15 16 16 16 15 12 6 4 8 10 9 9
27 28 30 29 25 22 20 21 23 23 20 20 20 20 22 23 25 27 31 33 34 34 34 33 29 24 16 7 2 2 7 12 15 15 14 11 5 1 2 5 8 6 4
21 24 27 27 24 20 18 19 19 17 16 17 20 21 21 21 22 26 30 31 30 30 31 29 25 19 12 7 3 2 3 7 11 13 13 9 3 0 0 2 3 2 1
13 16 19 22 22 19 17 17 18 16 15 16 20 22 23 23 23 24 26 28 28 27 25 23 19 15 11 7 4 2 1 2 5 9 8 5 2 0 0 0 0 0 1
8 8 10 14 17 16 15 16 18 18 16 17 19 20 22 22 21 20 21 22 22 21 20 17 14 12 9 6 4 2 1 1 2 3 3 2 1 0 1 1 0 0 1
4 4 5 9 13 14 13 14 17 18 17 17 16 16 17 16 15 14 14 14 13 13 13 12 10 9 6 3 1 2 2 2 1 1 2 2 1 1 2 2 1 1 1
3 3 3 7 11 12 12 13 15 16 16 15 14 12 12 12 10 9 9 8 7 7 7 7 6 5 3 1 0 1 1 1 1 2 3 3 2 2 3 3 2 2 2

GEFSMW_con_prob3kmehi_240.txt.gz
EHI
38 39 41 44 51 60 61 55 49 45 37 24 14 12 12 12 10 11 18 22 19 17 16 14 14 13 12 10 8 10 11 10 10 9 8 7 8 8 10 12 11 11 13
42 45 47 48 54 61 62 58 54 50 42 28 17 14 15 15 13 14 21 26 25 21 18 18 17 15 15 14 14 15 12 9 8 8 7 6 6 7 9 13 14 13 15
46 50 51 51 55 61 62 62 61 57 49 36 23 19 19 17 16 19 26 30 30 26 21 21 22 20 19 19 20 20 14 9 7 7 7 7 6 6 9 12 14 17 19
46 50 52 51 53 56 59 62 64 61 54 42 30 23 21 19 19 23 28 31 32 30 25 23 25 24 21 20 21 18 14 11 8 7 9 10 9 8 7 8 10 14 19
43 48 50 50 50 51 54 59 63 63 57 46 33 25 23 21 23 26 30 31 32 32 30 28 29 28 25 22 19 16 15 13 10 9 9 10 11 9 6 4 5 8 12
40 45 51 52 50 48 50 57 62 64 59 49 38 31 27 25 25 29 32 32 32 32 32 34 35 33 31 27 22 18 18 17 15 12 9 8 9 8 5 3 3 4 7
35 42 51 55 53 49 51 58 65 65 61 52 44 40 35 31 29 31 33 32 31 30 32 37 42 41 38 34 29 24 23 24 21 16 10 7 7 7 6 4 2 3 4
29 36 48 56 56 53 55 61 67 67 61 54 49 47 43 37 33 33 34 33 29 28 33 42 45 43 40 37 33 28 26 28 25 17 13 11 9 8 8 6 4 3 2
26 32 42 53 57 57 58 63 67 66 61 56 53 51 48 43 38 38 39 37 31 30 38 44 42 37 35 35 34 29 27 29 26 21 19 16 12 8 7 7 8 6 4
27 32 40 48 53 56 57 61 66 66 61 58 56 54 52 49 45 43 44 43 39 38 43 46 40 34 31 31 31 30 29 30 28 24 23 20 14 10 7 8 10 11 10
26 33 41 45 46 51 54 60 65 65 61 60 60 61 59 57 53 49 49 50 48 46 47 47 43 36 32 31 31 30 29 29 28 25 24 22 18 14 12 11 12 14 15
23 30 39 44 45 48 51 56 59 61 60 62 64 66 66 64 61 57 56 55 53 51 50 49 47 42 37 36 35 32 29 28 28 26 25 24 22 23 22 18 15 15 17
22 28 37 43 46 48 49 51 53 54 56 59 62 64 65 65 64 63 61 58 55 54 53 51 49 46 43 40 37 35 33 33 32 30 27 26 27 27 27 23 18 17 18
25 31 41 47 50 50 50 49 50 50 51 55 58 59 60 60 62 64 62 57 55 54 53 51 48 45 43 40 36 34 35 36 35 32 27 26 27 25 23 20 20 20 20
31 37 46 53 55 53 50 50 51 51 53 56 58 58 58 58 59 60 58 53 50 48 47 45 42 39 37 34 31 30 31 33 32 29 27 24 23 20 16 14 16 18 19
39 43 49 53 55 54 51 52 54 55 57 58 58 57 56 55 54 53 51 50 48 43 40 39 36 33 30 24 22 23 27 29 30 30 28 24 20 15 12 11 10 11 12
43 46 48 51 52 52 51 53 56 57 57 56 55 54 53 51 49 47 47 49 49 45 41 39 35 31 26 18 12 14 21 27 30 30 29 25 21 16 13 11 9 9 9
39 42 44 45 48 50 50 52 53 54 54 52 51 51 49 47 45 45 46 50 51 47 43 40 35 31 25 15 7 8 16 24 27 25 24 23 21 17 14 12 13 14 13
32 33 35 37 41 46 49 49 49 49 48 48 47 46 44 41 40 40 43 47 46 43 40 37 34 30 23 14 6 7 16 22 22 19 16 16 16 14 13 13 14 16 16
28 28 29 32 36 41 44 46 47 46 43 43 43 42 40 38 37 38 40 41 39 36 34 33 33 30 24 15 6 8 17 21 19 16 12 10 9 8 8 10 13 14 15
25 26 29 33 35 37 39 42 44 42 37 37 38 37 36 34 34 36 38 36 33 30 29 32 34 33 27 17 8 7 14 18 16 14 12 9 5 3 3 5 9 10 10
23 25 30 33 34 36 38 39 37 35 33 33 33 33 31 29 28 31 34 33 31 29 29 31 32 32 27 19 8 4 8 11 12 12 10 7 2 0 0 2 4 5 4
21 23 27 30 32 34 38 39 36 33 32 32 30 27 26 24 23 25 27 30 31 30 28 27 27 27 25 19 10 4 3 4 6 7 5 2 1 0 0 0 1 1 2
20 20 23 28 32 35 37 38 37 34 33 32 28 24 22 20 19 20 21 24 27 27 24 22 22 22 20 16 10 6 4 3 3 3 2 1 1 0 0 0 0 1 2
19 20 22 27 32 35 36 34 33 31 31 29 25 22 19 16 15 14 13 15 17 16 15 15 15 14 13 10 8 8 7 5 3 2 3 3 2 1 0 1 1 1 2
20 21 23 27 30 33 33 31 29 28 28 26 22 20 17 15 13 12 10 9 8 7 7 8 8 7 7 7 6 7 7 5 2 2 3 4 3 1 1 2 2 1 2